Regional Weather Roundup
Issued by NWS

Home | Current Version | Previous Version | Text Only | Print | Product List | Glossary On
Versions: 1 2 3 4 5 6 7 8 9 10 11 12 13 14 15 16 17 18 19 20 21 22 23 24 25 26 27 28 29 30 31 32 33 34 35 36 37 38 39 40 41 42 43 44 45 46 47 48 49 50
000
ASUS43 KMPX 261110
RWRMN
WEATHER ROUNDUP FOR MINNESOTA
NATIONAL WEATHER SERVICE TWIN CITIES/CHANHASSEN MN
600 AM CDT SUN APR 26 2015


NOTE: "FAIR" INDICATES FEW OR NO CLOUDS BELOW 12,000 FEET WITH NO
SIGNIFICANT WEATHER AND/OR OBSTRUCTIONS TO VISIBILITY. N/A MEANS
CURRENT SKY AND/OR WEATHER CONDITIONS ARE NOT AVAILABLE.

MNZ060>063-068>070-261200-
   Twin Cities Metro

CITY           SKY/WX    TMP DP  RH WIND       PRES   REMARKS
TWIN CITIES    CLEAR     36  22  56 N7        30.05R
ST PAUL        CLEAR     37  21  52 CALM      30.06R
CRYSTAL        CLEAR     34  22  61 NE5       30.05R WCI  30
BLAINE         CLEAR     32  25  74 NE5       30.05R WCI  27
LAKEVILLE      CLEAR     34  23  64 NE3       30.03R
EDEN PRAIRIE   CLEAR     36  21  54 N5        30.03R
SOUTH ST PAUL  CLEAR     38  22  52 CALM      30.05R
LAKE ELMO      FAIR      34  23  64 NE3       30.06R
$$
MNZ001>005-007-008-013>017-022>024-027-028-261200-
   Northwest Minnesota

CITY           SKY/WX    TMP DP  RH WIND       PRES   REMARKS
BEMIDJI        CLEAR     26  23  88 CALM      30.09R
HALLOCK        PTCLDY    37  27  65 SE8       30.06R
ROSEAU         CLEAR     32  27  80 E5        30.09R WCI  27
WARROAD        CLEAR     34  28  80 CALM      30.10R
THIEF RVR FALL CLEAR     37  27  65 CALM      30.09R
CROOKSTON      CLEAR     36  27  69 SE6       30.09R
FOSSTON        CLEAR     32  19  59 CALM      30.09R
DETROIT LAKES  CLEAR     36  18  48 SE7       30.08R
MOORHEAD       PTCLDY    34  25  69 SW5       30.09R WCI  30
PARK RAPIDS    CLEAR     29  18  63 CALM      30.08R
MAHNOMEN       FAIR      37  16  42 SE8       30.08R
$$
MNZ006-009>011-018-025>026-261200-
   North Central Minnesota

CITY           SKY/WX    TMP DP  RH WIND       PRES   REMARKS
BAUDETTE       CLEAR     31  25  78 E3        30.10R
FLAG ISLAND    CLEAR     39  23  52 CALM      30.11R
INTL FALLS     CLEAR     28  21  75 E3        30.12R
WASKISH        CLEAR     28  25  86 CALM      30.11R
BIG FORK       CLEAR     25  18  74 CALM      30.10S
LONGVILLE      CLEAR     25  19  80 CALM      30.09R
GRAND RAPIDS   CLEAR     27  14  59 CALM      30.09R
CRANE LAKE     CLEAR     19  18  93 CALM      30.15R
ORR            CLEAR     23  18  80 CALM      30.09S
COOK           CLEAR     21  19  93 CALM      30.12R
WALKER         FAIR      29  16  59 CALM      30.09R
$$
MNZ012-019>021-037-261200-
   Northeast Minnesota

CITY           SKY/WX    TMP DP  RH WIND       PRES   REMARKS
DULUTH         CLEAR     32  13  45 E5        30.09R WCI  27
ELY            CLEAR     19  18  93 CALM      30.12R
HIBBING        CLEAR     22  16  78 CALM      30.10R
EVELETH        CLEAR     23  19  86 CALM      30.11R
DULUTH HARBOR  CLEAR     32  28  86 CALM      30.13R
TWO HARBORS    CLEAR     34  19  55 N5        30.08R WCI  30
SILVER BAY     CLEAR     23  18  80 CALM      30.09R
GRAND MARAIS     N/A     39  18  42 N7        30.11R
G MARAIS ARPRT CLEAR     27  14  59 N3        30.09R
$$
MNZ029>031-032-039>041-046>048-054>057-064-261200-
   West Central Minnesota

CITY           SKY/WX    TMP DP  RH WIND       PRES   REMARKS
FERGUS FALLS   CLEAR     39   7  26 E5        30.09R
WHEATON        CLEAR     28  27  93 CALM      30.09R
MORRIS         CLEAR     34  23  64 E9        30.04R WCI  26
ALEXANDRIA     CLEAR     34  16  47 E5        30.07R WCI  30
ELBOW LAKE     FAIR      37  22  53 E10       30.06R
WADENA         CLEAR     28  16  59 E5        30.07R WCI  23
GLENWOOD       CLEAR     32  21  64 NE8       30.06R WCI  25
APPLETON       CLEAR     34  27  75 CALM      30.05R
BENSON         CLEAR     34  21  60 E5        30.06R WCI  30
ORTONVILLE     CLEAR     34  27  75 CALM      30.06R
MADISON        PTCLDY    34  27  75 CALM      30.05R
WILLMAR        FAIR      36  25  64 E8        30.06R
$$
MNZ033>034-036-042>043-049>051-058-059-261200-
   Central Minnesota

CITY           SKY/WX    TMP DP  RH WIND       PRES   REMARKS
ST CLOUD       CLEAR     32  22  66 CALM      30.06R
SAUK CENTRE    FAIR      33  19  58 NE3       30.07R
PAYNESVILLE    CLEAR     30  22  73 N3        30.06R
AITKIN         CLEAR     25  18  74 CALM      30.07S
PINE RIVER     CLEAR     27  18  69 CALM      30.12R
BRAINERD       CLEAR     28  19  69 NE3       30.09R
STAPLES        CLEAR     28  18  64 CALM      30.08R
LONG PRAIRIE   FAIR      32  18  55 N5        30.07R WCI  27
LITTLE FALLS   CLEAR     32  18  55 CALM      30.08R
LITCHFIELD     CLEAR     34  25  69 CALM      30.05R
BUFFALO        CLEAR     32  24  72 N3        30.06R
MAPLE LAKE     CLEAR     32  26  76 N5        30.07R WCI  28
$$
MNZ037-044-045-052-053-261200-
   East Central Minnesota

CITY           SKY/WX    TMP DP  RH WIND       PRES   REMARKS
PRINCETON      CLEAR     32  23  69 N3        30.07R
MORA           CLEAR     32  23  69 NE5       30.09R WCI  27
CAMBRIDGE      FAIR      34  21  60 CALM      30.05S
RUSH CITY      CLEAR     29  22  74 NE5       30.07R WCI  24
MOOSE LAKE     CLEAR     28  19  69 CALM      30.08R
HINCKLEY       FAIR      30  23  74 NE7       30.08S WCI  23
CLOQUET        CLEAR     25  16  68 CALM      30.09R
MCGREGOR       CLEAR     28  19  69 CALM      30.09R
$$
MNZ071>073-080-081-089-090-097-098-261200-
   Southwest Minnesota

CITY           SKY/WX    TMP DP  RH WIND       PRES   REMARKS
MONTEVIDEO     CLEAR     30  27  86 E5        30.06R WCI  25
GRANITE FALLS  CLEAR     33  25  71 CALM      30.06R
CANBY          PTCLDY    34  32  93 CALM      30.06R
MARSHALL       CLEAR     36  25  64 CALM      30.04R
REDWOOD FALLS  CLEAR     35  24  64 NE5       30.03R WCI  31
OLIVIA         CLEAR     30  23  74 NE3       30.03R
PIPESTONE      PTCLDY    36  34  93 NE3       30.01R
WINDOM         CLEAR     36  30  80 CALM      30.02R
WORTHINGTON    CLEAR     34  28  80 NW3       30.02R
JACKSON        CLEAR     34  32  93 NE5       30.01R WCI  30
TRACY          CLEAR     35  31  88 CALM      30.03R
SLAYTON        PTCLDY    31  31 100 CALM      30.03R FOG
$$
MNZ065>067-074>077-082>085-091>093-261200-
   South Central Minnesota

CITY           SKY/WX    TMP DP  RH WIND       PRES   REMARKS
MANKATO        CLEAR     39  25  56 NE8       30.02R
NEW ULM        CLEAR     36  23  60 NE3       30.02R
ST JAMES       CLEAR     30  27  86 NW5       30.03R WCI  25
FAIRMONT       CLEAR     34  28  80 N7        30.00R WCI  28
GLENCOE        CLEAR     35  25  67 N5        30.03R WCI  31
FARIBAULT      CLEAR     34  27  75 NE3       30.03R
OWATONNA       CLEAR     34  27  75 CALM      30.02R
WASECA         CLEAR     34  28  80 NE5       30.02R WCI  30
ALBERT LEA     CLEAR     36  28  75 SE6       30.01R
$$
MNZ078>079-086>088-094>096-261200-
   Southeast Minnesota

CITY           SKY/WX    TMP DP  RH WIND       PRES   REMARKS
ROCHESTER      CLEAR     35  21  56 SE8       30.02R WCI  29
RED WING       CLEAR     36  21  55 CALM      30.03R
STANTON        CLEAR     33  26  75 E5        30.02R WCI  28
DODGE CENTER   CLEAR     34  28  80 SE5       30.01S WCI  30
WINONA         CLEAR     32  30  93 CALM      30.04R
AUSTIN         CLEAR     34  27  75 E3        30.01R
PRESTON        CLEAR     36  20  51 CALM      30.02R
$$
ABBREVIATIONS USED IN REMARKS
   TC - TEMPERATURES IN CELSIUS
  WCI - WIND CHILL INDEX
   HX - HEAT INDEX
  VSB - VISIBILITY
$$



USA.gov is the U.S. government's official web portal to all federal, state and local government web resources and services.